Location: La Brionne
(46.1728°N, 1.7849°E)
Time: 06:28:06
(UTC+00:00)

Cosmos 1980 - Pass Details

Date: 16 June 2021
Orbit: 839 x 847 km, 71.0° (Epoch: 31 July)

Event Time Altitude Azimuth Distance (km) Brightness Sun altitude
Exits shadow 22:50:21 34° 152° (SSE) 1,368 4.2 -19.0°
Maximum altitude 22:52:09 44° 108° (ESE) 1,152 4.1 -19.1°
Drops below altitude 10° 22:57:31 10° 38° (NE) 2,479 6.6 -19.3°
Sets 23:00:04 0° 32° (NNE) 3,420 7.5 -19.4°
